This is the latest recevied weather packets stored in our database for station/object KB3KBR-WX. If no packets are shown the sender has not sent any weather packets the latest 10 day(s).
| Time | Temp. | Humidity | Pressure | Rain* | Wind** | Luminosity | Snow |
|---|---|---|---|---|---|---|---|
| 1787451744 | 16.67° C | 95% | 1008.1 hPa | 2.79 mm | - | - | - |
| 1787451414 | 16.11° C | 95% | 1007.2 hPa | 4.83 mm | - | - | - |
| 1787451114 | 16.11° C | 95% | 1007.3 hPa | 5.08 mm | - | - | - |
| 1787451004 | 16.11° C | 95% | 1007.3 hPa | 5.08 mm | - | - | - |
| 1787450784 | 16.11° C | 95% | 1007.3 hPa | 5.08 mm | - | - | - |
| 1787450484 | 16.11° C | 95% | 1007.8 hPa | 4.83 mm | - | - | - |
| 1787450154 | 16.11° C | 95% | 1008.4 hPa | 4.83 mm | - | - | - |
| 1787449854 | 16.11° C | 95% | 1008.6 hPa | 4.83 mm | - | - | - |
| 1787449524 | 16.11° C | 95% | 1008.7 hPa | 4.83 mm | - | - | - |
| 1787449224 | 16.11° C | 94% | 1008.5 hPa | 4.57 mm | - | - | - |
| 1787448894 | 16.11° C | 94% | 1009 hPa | 4.57 mm | - | - | - |
| 1787448594 | 16.11° C | 94% | 1008.9 hPa | 4.32 mm | - | - | - |
| 1787448264 | 16.11° C | 94% | 1009.1 hPa | 3.56 mm | - | - | - |
| 1787447964 | 16.67° C | 94% | 1009.5 hPa | 1.02 mm | - | - | - |
| 1787447634 | 16.67° C | 95% | 1009.6 hPa | 0.51 mm | - | - | - |
| 1787447335 | 16.67° C | 95% | 1008.4 hPa | 0 mm | - | - | - |
| 1787447004 | 16.67° C | 95% | 1008 hPa | 0 mm | - | - | - |
| 1787446674 | 16.67° C | 95% | 1007.8 hPa | 0 mm | - | - | - |
| 1787446344 | 16.67° C | 95% | 1008.1 hPa | 0 mm | - | - | - |
| 1787446014 | 16.67° C | 95% | 1008.3 hPa | 0 mm | - | - | - |
| 1787445714 | 16.67° C | 95% | 1008.5 hPa | 0 mm | - | - | - |
| 1787445384 | 16.67° C | 95% | 1008.5 hPa | 0.25 mm | - | - | - |
| 1787445084 | 16.67° C | 95% | 1008.4 hPa | 0.25 mm | - | - | - |
| 1787444754 | 16.67° C | 95% | 1008.2 hPa | 0.25 mm | - | - | - |
| 1787444454 | 16.67° C | 95% | 1008 hPa | 0.25 mm | - | - | - |
* Rain latest hour (hover to see other rain measurements)
** Current wind speed in m/s (hover to see current wind gust speed)